Location: Pacheco
(37.9835°N, 122.0752°W)
Time: 11:27:03
(UTC+00:00)

Cosmos 1656 Rocket - Pass Details

Date: 13 April 2024
Orbit: 796 x 844 km, 71.1° (Epoch: 23 May)

Event Time Altitude Azimuth Distance (km) Brightness Sun altitude
Rises 12:55:00 0° 341° (NNW) 3,307 6.8 -8.4°
Reaches altitude 10° 12:57:27 10° 345° (NNW) 2,372 6.1 -7.9°
Maximum altitude 13:02:48 62° 66° (ENE) 893 4.2 -6.9°
Drops below altitude 10° 13:08:08 10° 147° (SSE) 2,364 6.3 -5.9°
Sets 13:10:34 0° 150° (SSE) 3,295 7.0 -5.5°
